Epoch 2016 Apr. 2.0 TT = JDT 2457480.5
T 2016 Apr. 11.93310 TT MPCW
q 1.5183548 (2000.0) P Q
z +0.0017213 Peri. 318.47231 -0.69791147 -0.71143889
+/-0.0006460 Node 186.19926 -0.26463472 +0.14938457
e 0.9973865 Incl. 130.34250 -0.66549834 +0.68668694
From 65 observations 2016 May 6-June 5, mean residual 0".6.
Finding Charts
Magnitudes Graph
m1 = 15.0 + 5 log d + 10.0 log r
The orbital elements are published on M.P.E.C. 2016-Q04.
The charts are made with StellaNavigator Ver.10 (AstroArts).
The magnitudes graphs are made with Comet for Windows.
Copyright(C) Seiichi Yoshida (comet@aerith.net). All rights reserved.